Location: De Greiden
(52.9496°N, 5.9137°E)
Time: 01:49:22
(UTC+00:00)

SAR-Lupe-4 - Pass Details

Date: 24 January 2021
Orbit: 480 x 484 km, 98.2° (Epoch: 25 February)

Event Time Altitude Azimuth Distance (km) Brightness Sun altitude
Exits shadow 18:24:12 74° 103° (ESE) 509 3.4 -20.4°
Maximum altitude 18:24:13 74° 104° (ESE) 509 3.4 -20.4°
Drops below altitude 10° 18:27:46 10° 190° (S) 1,659 6.4 -20.9°
Sets 18:29:49 0° 192° (SSW) 2,533 7.4 -21.2°
